Meteo pe oră la Recife

Astăzi, 2 Decembrie, Miercuri

Timp Temperatura Precipitaţii Vânt Presiune Umiditate
00:00 +27°C° 0.1 mm 3 m/s 758 mmHg 82%
01:00 +27°C° 0.1 mm 3 m/s 758 mmHg 83%
02:00 +27°C° 0.3 mm 3 m/s 757 mmHg 84%
03:00 +27°C° 0.3 mm 3 m/s 757 mmHg 85%
04:00 +27°C° 0 mm 3 m/s 757 mmHg 84%
05:00 +27°C° 0.1 mm 3 m/s 757 mmHg 83%
06:00 +27°C° 0.1 mm 3 m/s 757 mmHg 81%
07:00 +28°C° 0.1 mm 4 m/s 758 mmHg 80%
08:00 +29°C° 0.2 mm 4 m/s 758 mmHg 75%
09:00 +30°C° 0.2 mm 4 m/s 758 mmHg 70%
10:00 +32°C° 0 mm 4 m/s 759 mmHg 65%
11:00 +33°C° 0.1 mm 4 m/s 758 mmHg 62%
12:00 +33°C° 0.1 mm 4 m/s 758 mmHg 60%
13:00 +34°C° 0.1 mm 5 m/s 758 mmHg 57%
14:00 +33°C° 0 mm 4 m/s 757 mmHg 59%
15:00 +33°C° 0 mm 4 m/s 757 mmHg 61%
16:00 +32°C° 0 mm 4 m/s 757 mmHg 63%
17:00 +30°C° 0.1 mm 4 m/s 757 mmHg 68%
18:00 +29°C° 0.1 mm 4 m/s 757 mmHg 73%
19:00 +28°C° 0.1 mm 4 m/s 757 mmHg 78%
20:00 +28°C° 0.1 mm 4 m/s 758 mmHg 79%
21:00 +28°C° 0.1 mm 3 m/s 758 mmHg 81%
22:00 +28°C° 0.1 mm 3 m/s 759 mmHg 82%
23:00 +27°C° 0.3 mm 3 m/s 758 mmHg 83%

Mâine, 3 Decembrie, Joi

Timp Temperatura Precipitaţii Vânt Presiune Umiditate
00:00 +27°C° 0.3 mm 3 m/s 758 mmHg 84%
01:00 +27°C° 0.3 mm 3 m/s 758 mmHg 85%
02:00 +27°C° 0.1 mm 3 m/s 758 mmHg 85%
03:00 +27°C° 0.1 mm 2 m/s 757 mmHg 85%
04:00 +27°C° 0.1 mm 2 m/s 757 mmHg 85%
05:00 +27°C° 0.2 mm 2 m/s 757 mmHg 83%
06:00 +27°C° 0.2 mm 2 m/s 758 mmHg 81%
07:00 +28°C° 0.2 mm 2 m/s 758 mmHg 80%
08:00 +29°C° 0.1 mm 3 m/s 758 mmHg 74%
09:00 +30°C° 0.1 mm 3 m/s 758 mmHg 68%
10:00 +32°C° 0.1 mm 4 m/s 758 mmHg 62%
11:00 +33°C° 0.1 mm 4 m/s 758 mmHg 61%
12:00 +33°C° 0.1 mm 5 m/s 758 mmHg 60%
13:00 +33°C° 0.1 mm 5 m/s 757 mmHg 59%
14:00 +33°C° 0 mm 5 m/s 757 mmHg 60%
15:00 +33°C° 0 mm 5 m/s 756 mmHg 62%
16:00 +32°C° 0 mm 5 m/s 756 mmHg 63%
17:00 +30°C° 0 mm 5 m/s 756 mmHg 68%
18:00 +29°C° 0 mm 4 m/s 757 mmHg 73%
19:00 +28°C° 0 mm 4 m/s 757 mmHg 78%
20:00 +28°C° 0.2 mm 4 m/s 758 mmHg 79%
21:00 +28°C° 0.2 mm 4 m/s 758 mmHg 81%
22:00 +28°C° 0.2 mm 4 m/s 759 mmHg 82%
23:00 +28°C° 0.4 mm 4 m/s 759 mmHg 83%

Poimâine, 4 Decembrie, Vineri

Timp Temperatura Precipitaţii Vânt Presiune Umiditate
00:00 +27°C° 0.4 mm 4 m/s 758 mmHg 83%
01:00 +27°C° 0.4 mm 3 m/s 758 mmHg 83%
02:00 +27°C° 0.3 mm 3 m/s 758 mmHg 83%
03:00 +27°C° 0.3 mm 3 m/s 758 mmHg 83%
04:00 +27°C° 0.3 mm 4 m/s 757 mmHg 83%
05:00 +27°C° 0.3 mm 4 m/s 758 mmHg 82%
06:00 +28°C° 0.3 mm 4 m/s 759 mmHg 81%
07:00 +28°C° 0.3 mm 4 m/s 759 mmHg 80%
08:00 +29°C° 0.1 mm 5 m/s 759 mmHg 74%
09:00 +30°C° 0.1 mm 5 m/s 760 mmHg 67%
10:00 +33°C° 0.1 mm 5 m/s 760 mmHg 61%
11:00 +33°C° 0 mm 5 m/s 759 mmHg 60%
12:00 +33°C° 0 mm 5 m/s 759 mmHg 59%
13:00 +34°C° 0 mm 5 m/s 759 mmHg 59%
14:00 +33°C° 0 mm 5 m/s 758 mmHg 60%
15:00 +33°C° 0 mm 5 m/s 758 mmHg 62%
16:00 +32°C° 0 mm 5 m/s 757 mmHg 64%
17:00 +30°C° 0 mm 4 m/s 757 mmHg 68%
18:00 +29°C° 0 mm 4 m/s 757 mmHg 73%
19:00 +29°C° 0 mm 4 m/s 758 mmHg 77%
20:00 +28°C° 0 mm 4 m/s 758 mmHg 79%
21:00 +28°C° 0 mm 4 m/s 758 mmHg 80%
22:00 +28°C° 0 mm 4 m/s 759 mmHg 82%
23:00 +28°C° 0.1 mm 4 m/s 758 mmHg 82%

5 Decembrie, Sâmbătă

Timp Temperatura Precipitaţii Vânt Presiune Umiditate
00:00 +27°C° 0.1 mm 4 m/s 758 mmHg 82%
01:00 +27°C° 0.1 mm 4 m/s 757 mmHg 83%
02:00 +27°C° 0.1 mm 4 m/s 757 mmHg 82%
03:00 +27°C° 0.1 mm 4 m/s 757 mmHg 81%
04:00 +27°C° 0.1 mm 4 m/s 757 mmHg 80%
05:00 +28°C° 0.2 mm 4 m/s 757 mmHg 79%
06:00 +28°C° 0.2 mm 4 m/s 758 mmHg 78%
07:00 +28°C° 0.2 mm 5 m/s 758 mmHg 77%
08:00 +29°C° 0.2 mm 5 m/s 758 mmHg 72%
09:00 +30°C° 0.2 mm 5 m/s 759 mmHg 67%
10:00 +32°C° 0.2 mm 5 m/s 759 mmHg 61%
11:00 +33°C° 0.1 mm 5 m/s 758 mmHg 60%
12:00 +33°C° 0.1 mm 6 m/s 758 mmHg 59%
13:00 +33°C° 0.1 mm 6 m/s 758 mmHg 57%
14:00 +33°C° 0 mm 5 m/s 757 mmHg 59%
15:00 +33°C° 0 mm 5 m/s 757 mmHg 61%
16:00 +32°C° 0 mm 5 m/s 757 mmHg 62%
17:00 +30°C° 0 mm 5 m/s 757 mmHg 67%
18:00 +29°C° 0 mm 5 m/s 757 mmHg 72%
19:00 +28°C° 0 mm 5 m/s 757 mmHg 77%
20:00 +28°C° 0.1 mm 5 m/s 758 mmHg 78%
21:00 +28°C° 0.1 mm 5 m/s 758 mmHg 79%
22:00 +28°C° 0.1 mm 5 m/s 758 mmHg 81%
23:00 +27°C° 0.1 mm 4 m/s 758 mmHg 82%

6 Decembrie, Duminică

Timp Temperatura Precipitaţii Vânt Presiune Umiditate
00:00 +27°C° 0.1 mm 4 m/s 758 mmHg 83%
01:00 +27°C° 0.1 mm 4 m/s 757 mmHg 84%
02:00 +27°C° 0.1 mm 4 m/s 757 mmHg 84%
03:00 +27°C° 0.1 mm 4 m/s 757 mmHg 84%
04:00 +27°C° 0.1 mm 4 m/s 757 mmHg 84%
05:00 +27°C° 0.1 mm 4 m/s 757 mmHg 83%
06:00 +27°C° 0.1 mm 4 m/s 757 mmHg 82%
07:00 +28°C° 0.1 mm 4 m/s 758 mmHg 81%
08:00 +29°C° 0.2 mm 5 m/s 758 mmHg 76%
09:00 +30°C° 0.2 mm 5 m/s 758 mmHg 71%
10:00 +32°C° 0.2 mm 5 m/s 759 mmHg 66%
11:00 +32°C° 0.1 mm 5 m/s 758 mmHg 64%
12:00 +32°C° 0.1 mm 6 m/s 758 mmHg 62%
13:00 +33°C° 0.1 mm 6 m/s 758 mmHg 60%
14:00 +32°C° 0 mm 5 m/s 757 mmHg 62%
15:00 +32°C° 0 mm 5 m/s 757 mmHg 63%
16:00 +32°C° 0 mm 5 m/s 756 mmHg 64%
17:00 +30°C° 0 mm 5 m/s 757 mmHg 67%
18:00 +29°C° 0 mm 4 m/s 757 mmHg 71%
19:00 +28°C° 0 mm 4 m/s 758 mmHg 74%
20:00 +28°C° 0 mm 4 m/s 758 mmHg 75%
21:00 +28°C° 0 mm 4 m/s 758 mmHg 75%
22:00 +27°C° 0 mm 4 m/s 758 mmHg 76%
23:00 +27°C° 0 mm 4 m/s 758 mmHg 78%

7 Decembrie, Luni

Timp Temperatura Precipitaţii Vânt Presiune Umiditate
00:00 +27°C° 0 mm 3 m/s 758 mmHg 79%
01:00 +27°C° 0 mm 3 m/s 757 mmHg 81%
02:00 +27°C° 0.1 mm 3 m/s 757 mmHg 81%
03:00 +27°C° 0.1 mm 3 m/s 757 mmHg 82%
04:00 +27°C° 0.1 mm 3 m/s 757 mmHg 82%
05:00 +27°C° 0.2 mm 3 m/s 757 mmHg 82%
06:00 +27°C° 0.2 mm 3 m/s 757 mmHg 81%
07:00 +28°C° 0.2 mm 4 m/s 758 mmHg 81%
08:00 +29°C° 0.1 mm 4 m/s 758 mmHg 75%
09:00 +30°C° 0.1 mm 5 m/s 758 mmHg 69%
10:00 +32°C° 0.1 mm 5 m/s 759 mmHg 64%
11:00 +32°C° 0.1 mm 5 m/s 758 mmHg 62%
12:00 +33°C° 0.1 mm 5 m/s 758 mmHg 60%
13:00 +33°C° 0.1 mm 5 m/s 758 mmHg 58%
14:00 +33°C° 0.1 mm 5 m/s 758 mmHg 60%
15:00 +33°C° 0.1 mm 5 m/s 757 mmHg 61%
16:00 +32°C° 0.1 mm 4 m/s 757 mmHg 62%
17:00 +30°C° 0.1 mm 4 m/s 757 mmHg 67%
18:00 +29°C° 0.1 mm 4 m/s 757 mmHg 71%
19:00 +28°C° 0.1 mm 4 m/s 758 mmHg 76%
20:00 +28°C° 0.2 mm 4 m/s 758 mmHg 78%
21:00 +28°C° 0.2 mm 4 m/s 758 mmHg 80%
22:00 +28°C° 0.2 mm 5 m/s 759 mmHg 81%
23:00 +28°C° 0.1 mm 5 m/s 758 mmHg 82%
Arată mai mult

Formular de consimțământ

Meteoprog și furnizorii noștri de servicii pot stoca și accesa date personale, precum cookies, identificatori de dispozitiv sau alte tehnologii similare pe dispozitivul dumneavoastră și procesa astfel de date pentru a personaliza conținutul și reclamele, dar și pentru a oferi caracteristici de social media și pentru a analiza traficul.

  • Stocarea și/sau accesarea informațiilor pe dispozitivul dumneavoastră

    Cookies, identificatori de dispozitiv sau alte informații pot fi stocate sau accesate pe dispozitiv în scopurile indicate mai sus.

  • Reclame și conținut personalizat, evaluarea reclamelor și a conținutului, informații despre audiențe și dezvoltarea produselor

    Reclamele și conținutul pot fi personalizate pe baza unui profil. Pot fi adăugate date suplimentare pentru a personaliza mai bine reclamele și conținutul. Performanța reclamelor și conținutului poate fi măsurată. Pot fi obținute informații despre utilizatorii care au văzut reclamele și conținutul. Aceste date pot fi utilizate pentru a dezvolta sau îmbunătăți experiența utilizatorilor, sistemele și software-ul.

Dând clic pe ‘Sunt de acord’, permiteți utilizarea cookie-urilor menționate, a identificatorilor de dispozitiv, balizelor web sau altor tehnologii similare. Setările pot fi modificate din browser-ul dispozitivului dumneavoastră.

În anumite scopuri, interesele legitime pot prima asupra consimțământului. Puteți citi mai multe informații în acest sens în Politica privind Confidențialitatea Datelor și Cookie.